Location: Beneden-Haastrecht
(52.0012°N, 4.7557°E)
Time: 12:00:25
(UTC+00:00)

Feng Yun 1-1 Rocket - Pass Details

Date: 24 October 2020
Orbit: 829 x 934 km, 99.2° (Epoch: 24 November)

Event Time Altitude Azimuth Distance (km) Brightness Sun altitude
Rises 16:55:04 0° 147° (SSE) 3,558 7.2 -5.0°
Reaches altitude 10° 16:57:30 10° 144° (SE) 2,627 6.5 -5.3°
Maximum altitude 17:03:16 58° 66° (ENE) 1,080 4.5 -6.2°
Drops below altitude 10° 17:09:05 10° 350° (N) 2,654 6.8 -7.1°
Sets 17:11:33 0° 346° (NNW) 3,598 7.5 -7.4°
